Weather History for Lynchburg, VA

Change the Weather History Date:

Wednesday, February 22, 2012

  Actual Average Record
Temperature  
Mean Temperature 47 °F 40 °F  
Max Temperature 64 °F 51 °F 73 °F (1930)
Min Temperature 29 °F 28 °F 3 °F (1968)
Degree Days  
Heating Degree Days 18 25  
Month to date heating degree days 544 604  
Since 1 July heating degree days 2801 3276  
Cooling Degree Days 0 0  
Month to date cooling degree days 0 0  
Year to date cooling degree days 0 0  
Moisture  
Dew Point 37 °F    
Average Humidity 63    
Maximum Humidity 100    
Minimum Humidity 25    
Precipitation  
Precipitation 0.55 in 0.11 in 1.66 in (2003)
Month to date precipitation 1.80 2.31  
Year to date precipitation 4.02 5.45  
Snow  
Snow 0.00 in - - ()
Month to date snowfall 7.7  
Since 1 July snowfall 7.7  
Snow Depth 0.00 in    
Sea Level Pressure  
Sea Level Pressure 29.75 in    
Wind  
Wind Speed 6 mph (SW)    
Max Wind Speed 21 mph    
Max Gust Speed 29 mph    
Visibility 9 miles    
Events Rain , Thunderstorm    
T = Trace of Precipitation, MM = Missing Value Source: NWS Daily Summary

Daily Weather History Graph

Daily Weather History Graph

Search for Another Location

Airport:

Trip Planner

Search our weather history database for the weather conditions in past years. The results will help you decide how hot, cold, wet, or windy it might be!

Date:

Astronomy

Feb. 22, 2012 Rise Set
Actual Time 6:57 AM EST 6:03 PM EST
Civil Twilight 6:31 AM EST 6:29 PM EST
Nautical Twilight 6:01 AM EST 7:00 PM EST
Astronomical Twilight 5:31 AM EST 7:30 PM EST
Moon 6:57 AM EST (2/22) 7:05 PM EST (2/22)
Length of Visible Light 11h 58m
Length of Day
11h 05m
New Moon, 1% of the Moon is Illuminated
Feb 22
New Moon
Feb 29
First Quarter
Mar 8
Full
Mar 14
Last Quarter
Mar 22
New

Hourly Weather History & Observations

Time (EST) Temp. Windchill Dew Point Humidity Pressure Visibility Wind Dir Wind Speed Gust Speed Precip Events Conditions
12:54 AM 39.9 °F 36.7 °F 35.1 °F 83% 29.93 in 10.0 mi SW 4.6 mph - N/A   Clear
1:54 AM 33.1 °F - 32.0 °F 96% 29.93 in 10.0 mi Calm Calm - N/A   Clear
2:54 AM 34.0 °F - 33.1 °F 96% 29.91 in 10.0 mi Calm Calm - N/A   Clear
3:54 AM 32.0 °F - 32.0 °F 100% 29.89 in 6.0 mi Calm Calm - N/A   Clear
4:54 AM 33.1 °F 28.7 °F 33.1 °F 100% 29.89 in 10.0 mi SSW 4.6 mph - N/A   Clear
5:54 AM 37.0 °F 34.5 °F 35.1 °F 93% 29.90 in 10.0 mi SSW 3.5 mph - N/A   Clear
6:54 AM 36.0 °F 32.1 °F 34.0 °F 93% 29.91 in 10.0 mi SSW 4.6 mph - N/A   Clear
7:54 AM 37.9 °F 35.5 °F 36.0 °F 93% 29.91 in 10.0 mi SSW 3.5 mph - N/A   Clear
8:54 AM 42.1 °F 39.2 °F 37.9 °F 85% 29.92 in 10.0 mi South 4.6 mph - N/A   Clear
9:54 AM 50.0 °F - 37.9 °F 63% 29.89 in 10.0 mi South 6.9 mph - N/A   Clear
10:54 AM 55.9 °F - 37.0 °F 49% 29.85 in 10.0 mi Variable 6.9 mph - N/A   Clear
11:54 AM 57.9 °F - 28.9 °F 33% 29.81 in 10.0 mi WSW 11.5 mph 20.7 mph N/A   Clear
12:54 PM 60.1 °F - 28.9 °F 31% 29.75 in 10.0 mi SSW 13.8 mph 18.4 mph N/A   Clear
1:54 PM 63.0 °F - 27.0 °F 26% 29.70 in 10.0 mi South 13.8 mph 25.3 mph N/A   Clear
2:54 PM 62.1 °F - 27.0 °F 26% 29.69 in 10.0 mi SW 18.4 mph 26.5 mph N/A   Overcast
3:54 PM 59.0 °F - 35.1 °F 41% 29.66 in 10.0 mi SW 15.0 mph 21.9 mph N/A   Overcast
4:54 PM 57.9 °F - 36.0 °F 44% 29.65 in 10.0 mi WSW 6.9 mph - N/A   Mostly Cloudy
5:54 PM 57.0 °F - 37.0 °F 47% 29.63 in 10.0 mi WSW 3.5 mph - N/A   Overcast
6:54 PM 55.0 °F - 37.9 °F 53% 29.62 in 10.0 mi Calm Calm - N/A   Overcast
7:54 PM 48.9 °F - 43.0 °F 80% 29.60 in 10.0 mi Calm Calm - 0.00 in Rain Light Rain
8:54 PM 48.0 °F - 46.0 °F 93% 29.59 in 4.0 mi North 3.5 mph - 0.12 in Rain Rain
9:05 PM 48.2 °F - 46.4 °F 93% 29.59 in 5.0 mi Calm Calm - N/A Rain , Thunderstorm Thunderstorms and Rain
9:26 PM 48.2 °F - 46.4 °F 93% 29.59 in 10.0 mi Calm Calm - 0.07 in Rain Light Rain
9:54 PM 48.9 °F - 46.9 °F 93% 29.60 in 10.0 mi NW 8.1 mph - 0.07 in Rain Light Rain
10:01 PM 48.2 °F - 46.4 °F 93% 29.63 in 4.0 mi NW 9.2 mph - 0.02 in Rain Heavy Rain
10:54 PM 46.9 °F - 45.0 °F 93% 29.61 in 4.0 mi West 4.6 mph - 0.28 in Rain Rain
11:54 PM 46.0 °F 41.4 °F 45.0 °F 96% 29.56 in 10.0 mi South 9.2 mph - 0.08 in Rain Light Rain